Date,TemperatureHighF,TemperatureAvgF,TemperatureLowF,DewpointHighF,DewpointAvgF,DewpointLowF,HumidityHigh,HumidityAvg,HumidityLow,PressureMaxIn,PressureMinIn,WindSpeedMaxMPH,WindSpeedAvgMPH,GustSpeedMaxMPH,PrecipitationSumIn
2012-1-1,88.2,72.9,59.0,65.7,58.2,52.8,89,61,48,30.00,29.91,6,2,6,0.00
2012-1-2,73.0,63.2,54.7,57.0,50.2,37.6,76,63,50,29.94,29.82,12,6,14,0.00
2012-1-6,54.5,54.2,54.0,45.7,45.2,44.8,72,72,71,29.91,29.91,3,0,3,0.00
2012-1-7,85.1,75.3,62.6,63.2,55.6,44.7,53,50,48,29.94,29.88,7,2,9,0.00
2012-1-13,78.6,63.9,55.2,58.3,46.2,38.1,61,53,50,29.91,29.85,8,3,9,0.00
2012-1-14,63.1,55.3,43.5,44.4,38.7,31.8,63,54,51,30.09,30.03,9,4,11,0.00
2012-1-21,91.0,80.9,72.0,68.0,60.1,52.9,51,49,47,29.88,29.82,10,4,11,0.00
2012-1-24,84.7,73.7,61.5,62.9,61.2,58.7,100,69,48,29.94,29.91,8,3,10,0.00
2012-1-29,80.2,69.9,60.4,59.8,51.9,46.8,63,53,50,30.03,30.00,13,4,14,0.00
2012-2-4,88.9,78.4,68.2,66.0,60.1,56.2,68,54,48,29.97,29.88,10,4,13,0.00
2012-2-8,76.1,71.4,68.9,57.8,56.1,55.1,62,59,53,29.85,29.82,7,6,8,0.00
2012-2-11,68.2,63.9,60.4,49.7,47.2,44.7,60,55,50,29.73,29.67,16,8,17,0.00
2012-2-12,57.9,52.0,47.8,40.1,35.6,32.0,54,53,52,30.06,30.00,13,6,15,0.00
2012-2-16,76.1,76.1,76.1,58.8,58.8,58.8,55,55,55,29.94,29.94,6,6,6,0.00
2012-2-19,87.1,81.6,74.1,64.5,63.2,62.0,66,54,48,29.67,29.56,19,9,21,0.00
2012-2-22,90.5,83.5,66.9,67.5,62.6,56.5,79,50,47,29.85,29.70,10,5,11,0.00
2012-2-29,91.0,86.3,82.0,68.0,64.3,61.0,49,48,47,30.00,29.91,14,6,14,0.00
2012-3-1,82.4,80.7,80.2,61.4,61.0,60.2,52,51,49,29.88,29.88,11,7,12,0.00
2012-3-3,89.6,84.6,81.0,66.7,64.0,62.2,55,50,47,29.70,29.65,16,8,19,0.00
2012-3-4,62.2,60.8,58.1,44.9,43.8,42.1,60,54,51,29.79,29.76,14,10,19,0.00
2012-3-13,70.5,70.4,70.3,54.6,54.5,54.4,57,57,57,30.03,30.00,0,0,0,0.00
2012-3-14,83.7,70.5,68.5,62.5,55.3,54.1,66,59,49,30.00,30.00,6,1,6,0.00
2012-3-15,68.7,68.7,68.7,57.3,57.3,57.3,67,67,67,30.00,30.00,0,0,0,0.00
2012-3-21,89.2,82.7,78.3,67.0,62.3,58.1,52,50,48,29.97,29.91,17,9,19,0.00
2012-3-22,72.5,72.5,72.5,60.1,60.1,60.1,65,65,65,29.94,29.94,8,5,8,0.00
2012-5-13,88.9,88.9,88.9,66.7,66.7,66.7,48,48,48,30.09,30.09,8,8,8,0.00
2012-10-6,81.7,78.2,76.5,71.4,69.2,64.5,82,74,56,29.70,29.67,10,2,11,0.00
2012-10-7,96.4,83.9,74.7,78.3,67.3,62.5,100,59,46,29.76,29.70,9,2,9,0.00
2012-10-8,74.7,74.5,74.3,66.0,63.9,62.8,75,70,67,29.79,29.76,5,2,6,0.00
2012-10-10,72.7,71.9,71.6,70.3,69.6,67.9,94,92,86,29.82,29.82,6,2,6,0.00
2012-10-11,91.2,83.3,76.8,67.9,62.0,56.8,50,49,47,29.91,29.88,12,5,15,0.00
2012-10-12,75.2,73.1,72.0,60.7,58.6,55.2,67,61,51,29.88,29.88,8,4,11,0.00
2012-10-13,85.5,79.6,77.2,63.1,59.5,57.0,57,50,48,29.91,29.85,17,5,17,0.00
2012-10-14,93.0,85.4,76.8,69.3,64.8,56.8,60,51,47,29.88,29.76,16,4,16,0.00
2012-10-15,79.2,75.7,73.6,78.4,75.5,72.7,100,99,97,29.67,29.67,0,0,3,0.00
2012-10-16,93.4,83.0,71.6,73.6,64.2,55.8,100,55,46,29.65,29.56,11,4,14,0.00
2012-10-17,74.7,71.8,69.8,67.2,65.8,64.1,84,81,78,29.65,29.62,0,0,0,0.00
2012-10-19,73.4,72.7,72.5,67.7,67.2,66.7,85,83,81,29.65,29.65,3,1,3,0.00
2012-10-20,94.8,83.2,70.7,70.5,62.4,53.4,60,50,46,29.73,29.65,12,4,12,0.00
2012-10-21,92.5,81.8,71.1,69.2,60.9,52.5,54,49,47,29.82,29.76,13,4,13,0.00
2012-10-23,76.6,76.0,75.7,56.5,56.1,55.8,50,50,50,29.79,29.76,11,5,11,0.00
2012-10-24,78.6,77.6,76.6,62.1,59.6,57.8,60,54,50,29.76,29.67,10,4,10,0.00
2012-10-25,83.3,77.5,73.4,70.9,64.1,60.0,88,64,51,29.67,29.53,17,5,17,0.00
2012-10-26,77.4,73.3,70.2,65.8,61.2,55.7,85,66,55,29.53,29.32,28,6,28,0.00
2012-10-27,71.8,70.1,68.5,55.6,53.7,52.4,59,56,54,29.41,29.29,24,7,24,0.00
2012-10-29,76.3,63.7,53.4,56.1,45.8,38.2,61,52,48,29.59,29.50,16,7,18,0.00
2012-10-30,53.4,49.9,47.7,36.4,33.8,31.9,54,54,53,29.67,29.62,13,5,13,0.00
2012-10-31,78.1,66.7,58.5,57.8,47.9,41.2,54,51,49,29.82,29.73,17,5,17,0.00
2012-11-1,83.1,73.5,58.1,62.0,54.8,41.9,61,52,49,29.79,29.73,15,6,15,0.00
2012-11-3,74.7,66.3,58.1,55.6,53.0,50.9,78,63,51,29.91,29.88,8,2,8,0.00
2012-11-4,93.4,80.1,70.2,69.5,59.6,51.6,57,50,46,29.91,29.79,8,0,8,0.00
2012-11-5,79.2,74.9,69.4,59.2,57.3,55.6,69,55,50,29.79,29.79,9,2,9,0.00
2012-11-7,58.6,54.4,51.4,52.0,44.1,40.1,81,68,61,29.79,29.70,10,2,10,0.00
2012-11-8,77.0,62.5,50.5,57.0,45.1,38.1,73,53,49,29.97,29.76,17,4,17,0.00
2012-11-10,74.7,70.1,66.2,55.3,50.6,48.1,55,50,49,30.12,30.06,9,2,9,0.00
2012-11-11,88.0,76.4,68.2,65.7,57.6,50.3,67,52,48,30.12,30.06,13,3,13,0.00
2012-11-13,80.8,74.7,69.8,63.8,58.5,54.4,78,58,49,30.03,29.94,11,2,11,0.00
2012-11-15,74.5,70.8,66.9,58.1,56.6,54.9,68,61,56,29.97,29.94,11,3,11,0.00
2012-11-18,79.7,70.3,61.0,59.3,53.3,47.6,62,55,50,30.03,29.97,16,5,16,0.00
2012-11-22,74.5,66.1,56.8,55.2,47.6,39.2,52,51,49,30.00,29.94,17,5,17,0.00
2012-11-25,82.9,69.0,55.0,61.7,50.6,39.8,66,52,49,30.03,29.97,9,3,9,0.00
2012-11-29,77.9,72.6,59.0,65.0,56.2,51.6,100,58,50,30.15,30.12,15,4,15,0.00
2012-12-1,79.3,74.0,71.2,58.6,54.6,52.5,52,51,50,30.15,30.09,8,3,9,0.00
2012-12-2,87.1,80.1,72.7,64.9,59.5,53.5,51,50,48,30.18,30.12,13,4,14,0.00
2012-12-4,73.9,67.4,60.3,55.8,54.1,52.3,75,63,51,30.18,30.15,4,1,4,0.00
2012-12-6,85.3,79.0,68.5,66.1,59.9,55.5,92,53,48,29.97,29.88,12,3,12,0.00
2012-12-8,77.2,74.8,73.2,62.3,60.9,59.0,67,62,56,29.97,29.97,3,0,3,0.00
2012-12-9,88.2,86.1,83.3,65.8,64.2,62.2,49,48,48,29.97,29.94,9,5,9,0.00
2012-12-11,87.4,78.4,73.9,66.6,63.6,61.5,77,61,48,29.94,29.85,10,2,10,0.00
2012-12-13,69.3,67.0,65.8,59.3,54.8,52.5,79,65,58,30.09,30.03,14,5,14,0.00
2012-12-20,86.0,82.3,76.5,63.9,61.2,56.5,50,49,48,30.03,29.91,14,6,14,0.00
2012-12-21,70.5,58.4,46.6,50.5,40.8,30.8,54,52,49,30.12,29.97,22,8,22,0.00
2012-12-22,55.6,48.7,42.4,38.2,32.9,27.8,56,54,52,30.18,30.15,19,7,19,0.00
2012-12-23,78.8,70.8,60.3,58.6,51.6,43.4,57,51,49,30.09,30.06,7,1,7,0.00
2012-12-26,74.3,72.3,71.2,59.7,59.0,58.1,67,63,58,29.82,29.82,17,7,17,0.00
2012-12-27,74.8,58.3,44.8,55.5,41.1,30.5,62,53,48,30.03,29.94,10,4,10,0.00
2012-12-29,78.8,77.7,77.0,61.8,61.4,61.1,58,57,56,29.91,29.91,12,8,14,0.00
2013-1-1,86.2,80.5,71.2,63.9,59.9,51.1,51,49,48,30.09,30.00,11,4,11,0.00